, AK

(GMT )
Denali Park

Weather History for PAIN - November, 2011

Change the Weather History Date:

Wednesday, November 30, 2011

  Actual Average Record
Temperature  
Mean Temperature 28 °F -  
Max Temperature 32 °F 11 °F 45 °F (1983)
Min Temperature 23 °F -3 °F -35 °F (1971)
Degree Days  
Heating Degree Days 38    
Moisture  
Dew Point 21 °F    
Average Humidity 73    
Maximum Humidity 86    
Minimum Humidity 60    
Precipitation  
Precipitation 0.00 in - - ()
Sea Level Pressure  
Sea Level Pressure 29.56 in    
Wind  
Wind Speed 6 mph (South)    
Max Wind Speed 10 mph    
Max Gust Speed 18 mph    
Visibility 10 miles    
Events      
Averages and records for this station are not official NWS values.
T = Trace of Precipitation, MM = Missing Value Source: NWS Daily Summary

Daily Weather History Graph

Daily Weather History Graph

Search for Another Location

Airport or City:

Astronomy

Nov. 30, 2011 Rise Set
Actual Time 10:05 AM AKST 3:22 PM AKST
Civil Twilight 8:57 AM AKST 4:30 PM AKST
Nautical Twilight 7:53 AM AKST 5:34 PM AKST
Astronomical Twilight 6:56 AM AKST 6:31 PM AKST
Moon 1:10 PM AKST (11/30) 10:57 PM AKST (11/30)
Length of Visible Light 7h 32m
Length of Day
5h 16m
Waxing Crescent, 35% of the Moon is Illuminated
Nov 30
Waxing Crescent
Dec 2
First Quarter
Dec 10
Full
Dec 17
Last Quarter
Dec 24
New

Hourly Weather History & Observations

Time (AKST) Temp. Windchill Dew Point Humidity Pressure Visibility Wind Dir Wind Speed Gust Speed Precip Events Conditions
12:16 AM 23.0 °F 14.7 °F 17.6 °F 80% 29.67 in 10.0 mi SSW 6.9 mph - N/A   Overcast
12:36 AM 24.8 °F 16.9 °F 17.6 °F 74% 29.65 in 10.0 mi South 6.9 mph - N/A   Overcast
12:56 AM 24.8 °F 14.6 °F 17.6 °F 74% 29.64 in 10.0 mi SSW 10.4 mph 18.4 mph N/A   Overcast
1:16 AM 24.8 °F 19.1 °F 17.6 °F 74% 29.64 in 10.0 mi South 4.6 mph - N/A   Overcast
1:36 AM 24.8 °F 19.1 °F 17.6 °F 74% 29.63 in 10.0 mi South 4.6 mph 16.1 mph N/A   Overcast
1:56 AM 24.8 °F 19.1 °F 17.6 °F 74% 29.62 in 10.0 mi South 4.6 mph - N/A   Overcast
2:16 AM 24.8 °F - 19.4 °F 80% 29.62 in 10.0 mi Calm Calm - N/A   Overcast
2:36 AM 24.8 °F - 19.4 °F 80% 29.62 in 10.0 mi Calm Calm - N/A   Overcast
2:56 AM 24.8 °F 16.9 °F 19.4 °F 80% 29.61 in 10.0 mi South 6.9 mph - N/A   Mostly Cloudy
3:36 AM 24.8 °F 19.1 °F 19.4 °F 80% 29.62 in 10.0 mi SSE 4.6 mph - N/A   Overcast
3:56 AM 24.8 °F 16.1 °F 21.2 °F 86% 29.61 in 10.0 mi South 8.1 mph - N/A   Overcast
4:16 AM 24.8 °F 19.1 °F 21.2 °F 86% 29.62 in 10.0 mi South 4.6 mph - N/A   Scattered Clouds
4:36 AM 24.8 °F 16.1 °F 19.4 °F 80% 29.61 in 10.0 mi South 8.1 mph - N/A   Clear
4:56 AM 24.8 °F 19.1 °F 19.4 °F 80% 29.63 in 10.0 mi SSW 4.6 mph - N/A   Scattered Clouds
5:16 AM 24.8 °F 19.1 °F 19.4 °F 80% 29.62 in 10.0 mi South 4.6 mph - N/A   Overcast
5:36 AM 24.8 °F - 19.4 °F 80% 29.63 in 10.0 mi Calm Calm - N/A   Mostly Cloudy
5:56 AM 24.8 °F 19.1 °F 19.4 °F 80% 29.63 in 10.0 mi ESE 4.6 mph - N/A   Scattered Clouds
6:16 AM 24.8 °F 20.5 °F 19.4 °F 80% 29.62 in 10.0 mi West 3.5 mph - N/A   Partly Cloudy
6:36 AM 24.8 °F - 19.4 °F 80% 29.61 in 10.0 mi Calm Calm - N/A   Clear
6:56 AM 24.8 °F 19.1 °F 19.4 °F 80% 29.61 in 10.0 mi WSW 4.6 mph - N/A   Clear
7:16 AM 24.8 °F 20.5 °F 19.4 °F 80% 29.61 in 10.0 mi SE 3.5 mph - N/A   Clear
7:36 AM 26.6 °F 16.8 °F 21.2 °F 80% 29.61 in 10.0 mi South 10.4 mph 18.4 mph N/A   Clear
7:56 AM 26.6 °F 18.2 °F 21.2 °F 80% 29.61 in 10.0 mi SSE 8.1 mph - N/A   Clear
8:16 AM 26.6 °F 21.2 °F 21.2 °F 80% 29.61 in 10.0 mi South 4.6 mph - N/A   Mostly Cloudy
8:36 AM 26.6 °F 22.6 °F 21.2 °F 80% 29.60 in 10.0 mi SSW 3.5 mph - N/A   Mostly Cloudy
8:56 AM 26.6 °F 21.2 °F 21.2 °F 80% 29.60 in 10.0 mi South 4.6 mph - N/A   Mostly Cloudy
9:16 AM 26.6 °F 19.1 °F 21.2 °F 80% 29.60 in 10.0 mi South 6.9 mph - N/A   Overcast
9:36 AM 28.4 °F 21.2 °F 21.2 °F 74% 29.60 in 10.0 mi SSE 6.9 mph - N/A   Overcast
9:56 AM 28.4 °F 23.3 °F 21.2 °F 74% 29.60 in 10.0 mi South 4.6 mph - N/A   Overcast
10:16 AM 28.4 °F - 21.2 °F 74% 29.61 in 10.0 mi Calm Calm - N/A   Overcast
10:36 AM 28.4 °F 22.2 °F 21.2 °F 74% 29.60 in 10.0 mi South 5.8 mph - N/A   Overcast
10:56 AM 30.2 °F 24.3 °F 23.0 °F 75% 29.59 in 10.0 mi South 5.8 mph - N/A   Overcast
11:16 AM 30.2 °F 25.4 °F 23.0 °F 75% 29.59 in 10.0 mi South 4.6 mph - N/A   Overcast
11:36 AM 30.2 °F 23.4 °F 23.0 °F 75% 29.58 in 10.0 mi South 6.9 mph - N/A   Overcast
11:56 AM 30.2 °F 22.6 °F 23.0 °F 75% 29.58 in 10.0 mi South 8.1 mph - N/A   Overcast
12:16 PM 30.2 °F 22.6 °F 21.2 °F 69% 29.57 in 10.0 mi South 8.1 mph - N/A   Overcast
12:36 PM 32.0 °F 23.6 °F 21.2 °F 64% 29.57 in 10.0 mi South 10.4 mph - N/A   Overcast
12:56 PM 32.0 °F 24.8 °F 21.2 °F 64% 29.57 in 10.0 mi South 8.1 mph - N/A   Overcast
1:16 PM 32.0 °F 23.6 °F 21.2 °F 64% 29.56 in 10.0 mi SSE 10.4 mph 16.1 mph N/A   Overcast
1:36 PM 32.0 °F 24.2 °F 21.2 °F 64% 29.56 in 10.0 mi SSE 9.2 mph - N/A   Overcast
1:56 PM 32.0 °F 24.8 °F 21.2 °F 64% 29.56 in 10.0 mi SSE 8.1 mph - N/A   Overcast
2:16 PM 32.0 °F 25.6 °F 21.2 °F 64% 29.55 in 10.0 mi South 6.9 mph - N/A   Overcast
2:36 PM 32.0 °F 24.8 °F 21.2 °F 64% 29.55 in 10.0 mi South 8.1 mph - N/A   Overcast
2:56 PM 32.0 °F 24.8 °F 21.2 °F 64% 29.53 in 10.0 mi South 8.1 mph - N/A   Overcast
3:16 PM 32.0 °F 25.6 °F 23.0 °F 69% 29.52 in 10.0 mi South 6.9 mph - N/A   Overcast
3:36 PM 32.0 °F 26.4 °F 21.2 °F 64% 29.51 in 10.0 mi SSE 5.8 mph - N/A   Overcast
3:56 PM 30.2 °F 22.6 °F 21.2 °F 69% 29.50 in 10.0 mi SSE 8.1 mph - N/A   Overcast
4:16 PM 32.0 °F 24.8 °F 21.2 °F 64% 29.49 in 10.0 mi SSE 8.1 mph - N/A   Overcast
4:36 PM 32.0 °F 23.6 °F 19.4 °F 60% 29.48 in 10.0 mi SSE 10.4 mph - N/A   Mostly Cloudy
4:56 PM 32.0 °F 23.6 °F 21.2 °F 64% 29.48 in 10.0 mi SSE 10.4 mph 17.3 mph N/A   Mostly Cloudy
5:16 PM 32.0 °F 24.2 °F 21.2 °F 64% 29.47 in 10.0 mi SSE 9.2 mph - N/A   Mostly Cloudy
5:36 PM 32.0 °F 24.8 °F 21.2 °F 64% 29.46 in 10.0 mi SSE 8.1 mph - N/A   Mostly Cloudy
5:56 PM 32.0 °F 24.8 °F 21.2 °F 64% 29.46 in 10.0 mi South 8.1 mph - N/A   Mostly Cloudy
6:16 PM 32.0 °F 24.8 °F 21.2 °F 64% 29.45 in 10.0 mi SSE 8.1 mph - N/A   Scattered Clouds
6:36 PM 32.0 °F 25.6 °F 23.0 °F 69% 29.44 in 10.0 mi SSE 6.9 mph - N/A   Partly Cloudy
6:56 PM 32.0 °F 26.4 °F 23.0 °F 69% 29.43 in 10.0 mi South 5.8 mph - N/A   Scattered Clouds
7:16 PM 30.2 °F 26.7 °F 24.8 °F 80% 29.42 in 10.0 mi SW 3.5 mph - N/A   Mostly Cloudy
7:36 PM 30.2 °F - 23.0 °F 75% 29.42 in 10.0 mi Calm Calm - N/A   Overcast
7:56 PM 30.2 °F 26.7 °F 23.0 °F 75% 29.41 in 10.0 mi WNW 3.5 mph - N/A   Mostly Cloudy
8:16 PM 30.2 °F 23.4 °F 23.0 °F 75% 29.40 in 10.0 mi NE 6.9 mph - N/A   Overcast
8:36 PM 32.0 °F 28.7 °F 21.2 °F 64% 29.39 in 10.0 mi ENE 3.5 mph - N/A   Overcast
8:56 PM 32.0 °F - 23.0 °F 69% 29.39 in 10.0 mi Calm Calm - N/A   Overcast
9:16 PM 30.2 °F 26.7 °F 23.0 °F 75% 29.37 in 10.0 mi South 3.5 mph - N/A   Mostly Cloudy
9:36 PM 30.2 °F - 23.0 °F 75% 29.36 in 10.0 mi Calm Calm - N/A   Mostly Cloudy
10:16 PM 28.4 °F 24.6 °F 23.0 °F 80% 29.36 in 10.0 mi South 3.5 mph - N/A   Clear
10:36 PM 28.4 °F - 23.0 °F 80% 29.36 in 10.0 mi Calm Calm - N/A   Clear
10:56 PM 26.6 °F 22.6 °F 23.0 °F 86% 29.36 in 10.0 mi WSW 3.5 mph - N/A   Clear
11:16 PM 26.6 °F 22.6 °F 23.0 °F 86% 29.35 in 10.0 mi West 3.5 mph - N/A   Clear
11:36 PM 24.8 °F 20.5 °F 21.2 °F 86% 29.35 in 10.0 mi SW 3.5 mph - N/A   Clear
11:56 PM 23.0 °F - 19.4 °F 86% 29.35 in 10.0 mi Calm Calm - N/A   Clear